TimeEST,TemperatureF,Dew PointF,Humidity,Sea Level PressureIn,VisibilityMPH,Wind Direction,Wind SpeedMPH,Gust SpeedMPH,PrecipitationIn,Events,Conditions,WindDirDegrees,DateUTC
12:15 AM,33.8,8.6,35,30.35,10.0,NW,3.5,-,N/A,,Clear,310,2013-02-02 05:15:00
12:35 AM,32.0,10.4,41,30.35,10.0,WNW,3.5,-,N/A,,Clear,300,2013-02-02 05:35:00
12:55 AM,32.0,8.6,38,30.35,10.0,NW,4.6,-,N/A,,Clear,310,2013-02-02 05:55:00
1:15 AM,32.0,10.4,41,30.35,10.0,NW,4.6,-,N/A,,Clear,310,2013-02-02 06:15:00
1:35 AM,32.0,8.6,38,30.35,10.0,NW,5.8,-,N/A,,Clear,320,2013-02-02 06:35:00
1:55 AM,32.0,8.6,38,30.35,10.0,NNW,4.6,-,N/A,,Clear,330,2013-02-02 06:55:00
2:15 AM,32.0,10.4,41,30.34,10.0,NNW,5.8,-,N/A,,Clear,330,2013-02-02 07:15:00
2:35 AM,32.0,8.6,38,30.35,10.0,NW,4.6,-,N/A,,Clear,320,2013-02-02 07:35:00
2:55 AM,32.0,8.6,38,30.35,10.0,NNW,3.5,-,N/A,,Clear,330,2013-02-02 07:55:00
3:15 AM,30.2,6.8,37,30.34,10.0,NNW,3.5,-,N/A,,Clear,340,2013-02-02 08:15:00
3:35 AM,30.2,6.8,37,30.34,10.0,NNW,3.5,-,N/A,,Clear,330,2013-02-02 08:35:00
3:55 AM,28.4,10.4,47,30.34,10.0,Calm,Calm,-,N/A,,Clear,0,2013-02-02 08:55:00
4:15 AM,28.4,12.2,51,30.34,10.0,Calm,Calm,-,N/A,,Clear,0,2013-02-02 09:15:00
4:35 AM,28.4,12.2,51,30.33,10.0,NNW,4.6,-,N/A,,Clear,340,2013-02-02 09:35:00
4:55 AM,28.4,10.4,47,30.34,10.0,Calm,Calm,-,N/A,,Clear,0,2013-02-02 09:55:00
5:15 AM,26.6,12.2,55,30.34,10.0,Calm,Calm,-,N/A,,Clear,0,2013-02-02 10:15:00
5:35 AM,26.6,14.0,59,30.34,-9999.0,Calm,Calm,-,N/A,,Clear,0,2013-02-02 10:35:00
5:55 AM,26.6,14.0,59,30.33,-9999.0,Calm,Calm,-,N/A,,Clear,0,2013-02-02 10:55:00
6:15 AM,26.6,14.0,59,30.34,-9999.0,NNW,3.5,-,N/A,,Clear,330,2013-02-02 11:15:00
6:35 AM,24.8,14.0,64,30.34,-9999.0,NNW,4.6,-,N/A,,Clear,330,2013-02-02 11:35:00
7:15 AM,26.6,12.2,55,30.35,-9999.0,Calm,Calm,-,N/A,,Clear,0,2013-02-02 12:15:00
7:35 AM,26.6,12.2,55,30.35,-9999.0,NNW,3.5,-,N/A,,Clear,330,2013-02-02 12:35:00
7:55 AM,26.6,12.2,55,30.36,-9999.0,NW,3.5,-,N/A,,Clear,320,2013-02-02 12:55:00
8:15 AM,28.4,12.2,51,30.36,-9999.0,NW,3.5,-,N/A,,Clear,320,2013-02-02 13:15:00
8:35 AM,30.2,10.4,44,30.36,10.0,Calm,Calm,-,N/A,,Clear,0,2013-02-02 13:35:00
8:55 AM,32.0,12.2,44,30.36,10.0,Calm,Calm,-,N/A,,Clear,0,2013-02-02 13:55:00
9:15 AM,33.8,12.2,41,30.35,10.0,Calm,Calm,-,N/A,,Clear,0,2013-02-02 14:15:00
9:35 AM,33.8,14.0,44,30.34,10.0,Calm,Calm,-,N/A,,Clear,0,2013-02-02 14:35:00
9:55 AM,35.6,12.2,38,30.34,10.0,South,3.5,-,N/A,,Clear,170,2013-02-02 14:55:00
10:15 AM,37.4,10.4,33,30.34,10.0,SSE,3.5,-,N/A,,Clear,150,2013-02-02 15:15:00
10:35 AM,41.0,8.6,26,30.34,10.0,South,5.8,-,N/A,,Clear,170,2013-02-02 15:35:00
10:55 AM,41.0,8.6,26,30.33,10.0,Calm,Calm,-,N/A,,Clear,0,2013-02-02 15:55:00
11:15 AM,42.8,8.6,25,30.31,10.0,SSE,4.6,-,N/A,,Clear,160,2013-02-02 16:15:00
11:35 AM,42.8,3.2,19,30.30,10.0,SSE,4.6,-,N/A,,Clear,160,2013-02-02 16:35:00
11:55 AM,44.6,5.0,20,30.28,10.0,South,3.5,-,N/A,,Clear,180,2013-02-02 16:55:00
12:15 PM,46.4,1.4,16,30.27,10.0,SW,4.6,-,N/A,,Clear,220,2013-02-02 17:15:00
12:35 PM,46.4,1.4,16,30.26,10.0,WSW,3.5,-,N/A,,Clear,240,2013-02-02 17:35:00
12:55 PM,48.2,-2.2,12,30.26,10.0,SW,4.6,-,N/A,,Clear,230,2013-02-02 17:55:00
1:15 PM,50.0,-0.4,13,30.24,10.0,NW,4.6,-,N/A,,Clear,320,2013-02-02 18:15:00
1:35 PM,51.8,-0.4,12,30.23,10.0,West,6.9,-,N/A,,Clear,260,2013-02-02 18:35:00
1:55 PM,51.8,1.4,13,30.21,10.0,WNW,6.9,-,N/A,,Clear,300,2013-02-02 18:55:00
2:15 PM,53.6,-0.4,11,30.20,10.0,West,9.2,-,N/A,,Clear,280,2013-02-02 19:15:00
2:35 PM,53.6,1.4,12,30.19,10.0,NW,5.8,-,N/A,,Clear,310,2013-02-02 19:35:00
2:55 PM,53.6,-0.4,11,30.19,10.0,NW,4.6,-,N/A,,Clear,310,2013-02-02 19:55:00
3:15 PM,53.6,1.4,12,30.18,10.0,West,6.9,-,N/A,,Clear,280,2013-02-02 20:15:00
4:55 PM,53.6,8.6,16,30.15,10.0,West,4.6,-,N/A,,Clear,270,2013-02-02 21:55:00
5:35 PM,53.6,12.2,19,30.12,10.0,SSW,4.6,-,N/A,,Clear,200,2013-02-02 22:35:00
5:55 PM,51.8,12.2,21,30.12,10.0,SW,4.6,-,N/A,,Clear,220,2013-02-02 22:55:00
6:15 PM,48.2,14.0,25,30.11,10.0,Calm,Calm,-,N/A,,Clear,0,2013-02-02 23:15:00
6:35 PM,44.6,19.4,37,30.11,10.0,SW,3.5,-,N/A,,Clear,230,2013-02-02 23:35:00
6:55 PM,44.6,19.4,37,30.14,10.0,West,3.5,-,N/A,,Clear,260,2013-02-02 23:55:00
7:15 PM,46.4,15.8,29,30.16,10.0,WNW,5.8,-,N/A,,Clear,300,2013-02-03 00:15:00
7:35 PM,48.2,15.8,27,30.15,10.0,West,8.1,-,N/A,,Clear,260,2013-02-03 00:35:00
7:55 PM,51.8,21.2,30,30.14,10.0,West,11.5,19.6,N/A,,Clear,270,2013-02-03 00:55:00
8:15 PM,46.4,32.0,57,30.17,7.0,West,12.7,33.4,N/A,Rain,Light Rain,270,2013-02-03 01:15:00
8:35 PM,44.6,35.6,71,30.17,10.0,West,8.1,-,N/A,Rain,Light Rain,260,2013-02-03 01:35:00
8:55 PM,42.8,37.4,81,30.17,10.0,West,9.2,-,N/A,Rain,Light Rain,260,2013-02-03 01:55:00
9:15 PM,42.8,41.0,93,30.16,10.0,WSW,4.6,-,N/A,Rain,Light Rain,250,2013-02-03 02:15:00
9:35 PM,42.8,41.0,93,30.15,10.0,SW,4.6,-,N/A,Rain,Light Rain,230,2013-02-03 02:35:00
9:55 PM,42.8,41.0,93,30.14,10.0,Calm,Calm,-,N/A,Rain,Light Rain,0,2013-02-03 02:55:00
10:15 PM,42.8,41.0,93,30.14,10.0,West,3.5,-,N/A,,Drizzle,280,2013-02-03 03:15:00
10:35 PM,42.8,42.8,100,30.13,10.0,Calm,Calm,-,N/A,Rain,Light Rain,0,2013-02-03 03:35:00
10:55 PM,42.8,41.0,93,30.12,10.0,Calm,Calm,-,N/A,,Mostly Cloudy,0,2013-02-03 03:55:00
11:15 PM,41.0,41.0,100,30.11,10.0,WSW,3.5,-,N/A,,Scattered Clouds,250,2013-02-03 04:15:00
11:35 PM,41.0,41.0,100,30.11,10.0,Calm,Calm,-,N/A,,Scattered Clouds,0,2013-02-03 04:35:00
11:55 PM,41.0,41.0,100,30.10,5.0,Calm,Calm,-,N/A,,Scattered Clouds,0,2013-02-03 04:55:00